Flag for U.S.A. Weather past 2 weeks in Davenport, Iowa, U.S.A.

Now
46 °F

Sunny.


Feels Like: 38 °F
Forecast: 29 / 55 °F
Wind: 23 mph from Southeast

Location: Davenport Municipal Airport


UV Index: 0 (Low)

Visibility: 10 mi


Pressure: 30.14 "Hg

Humidity: 51%

Dew point: 29 °F

Location of DavenportLocation

Historic Weather in Davenport

°F

Davenport temperature yesterday

Maximum temperature yesterday: 40 °F (at 3:52 PM)
Minimum temperature yesterday: 25 °F (at 5:52 AM)
Average temperature yesterday: 32 °F

Past Weeks' High & Low Weather Summary

 TemperatureHumidityPressure
High81 °F (Apr 12, 4:52 PM)100% (Apr 4, 4:57 AM)30.24 "Hg (Apr 4, 4:57 AM)
Low25 °F (Apr 15, 5:52 AM)15% (Apr 10, 3:52 PM)29.45 "Hg (Apr 13, 5:52 PM)
Average46 °F62%29.92 "Hg
* Reported Apr 1 10:52 AM — Apr 16 10:52 AM, Davenport, Weather by CustomWeather, © 2014

Note: Actual official high and low records may vary slightly from our data, if they occured in-between our weather recording intervals... More about our weather records

Advertising

Historic Weather Conditions — Data for Previous 24 hours

 ConditionsComfort  
Time TempWeatherWind HumidityBarometerVisibility
10:52 AM
Apr 16
46 °FSunny.23 mph51%30.14 "Hg10 mi
9:52 AM42 °FSunny.22 mph55%30.16 "Hg10 mi
8:52 AM38 °FSunny.21 mph60%30.17 "Hg10 mi
7:52 AM36 °FPassing clouds.16 mph62%30.18 "Hg10 mi
6:52 AM35 °FPassing clouds.15 mph61%30.17 "Hg10 mi
5:52 AM34 °FClear.17 mph61%30.15 "Hg10 mi
4:52 AM33 °FClear.14 mph61%30.16 "Hg10 mi
3:52 AM31 °FClear.12 mph64%30.16 "Hg10 mi
2:52 AM31 °FClear.10 mph61%30.16 "Hg10 mi
1:52 AM30 °FClear.10 mph64%30.16 "Hg10 mi
12:52 AM29 °FClear.8 mph64%30.18 "Hg10 mi
11:52 PM
Apr 15
29 °FClear.8 mph61%30.18 "Hg10 mi
10:52 PM31 °FClear.7 mph57%30.19 "Hg10 mi
9:52 PM32 °FClear.5 mph59%30.18 "Hg10 mi
8:52 PM33 °FClear.No wind45%30.17 "Hg10 mi
7:52 PM36 °FSunny.3 mph46%30.16 "Hg10 mi
5:52 PM40 °FSunny.9 mph35%30.16 "Hg10 mi
4:52 PM40 °FSunny.12 mph36%30.17 "Hg10 mi
3:52 PM40 °FSunny.12 mph40%30.17 "Hg10 mi
2:52 PM39 °FSunny.9 mph39%30.19 "Hg10 mi
1:52 PM38 °FSunny.16 mph43%30.19 "Hg10 mi
12:52 PM36 °FSunny.15 mph44%30.19 "Hg10 mi
Weather by CustomWeather, © 2014

See weather overview